Atmospheric History
02/08/2018 18:30  to  2/9/2018 18:30
Change End Date:
To complete the export process:
1) Select all of the data below
2) Copy the data to the clipboard
3) Open a word processor such as Notepad
4) Paste the data into the word processor
5) Save the file

Date/Time (MST), AirTemp, RH, Dewpoint ,AvgWindSpeed, GustWindSpeed, WindDirection, PrecipType, PrecipIntensity, PrecipAccumulation, PrecipRate
02/09/2018 18:23, -7, 83, -11 ,3, 3, W, None, None, ,  
02/09/2018 18:22, -7, 82, -11 ,2, 2, W, None, None, ,  
02/09/2018 18:12, -7, 83, -11 ,2, 2, W, None, None, ,  
02/09/2018 18:08, -7, 83, -11 ,1, 2, W, None, None, ,  
02/09/2018 18:02, -8, 81, -12 ,0, 1, W, None, None, ,  
02/09/2018 17:54, -7, 81, -11 ,1, 2, W, None, None, ,  
02/09/2018 17:51, -7, 81, -11 ,1, 2, W, None, None, ,  
02/09/2018 17:41, -7, 80, -11 ,0, 1, W, None, None, ,  
02/09/2018 17:39, -6, 80, -11 ,1, 1, W, None, None, ,  
02/09/2018 17:31, -6, 78, -11 ,0, 2, W, None, None, ,  
02/09/2018 17:24, -5, 78, -10 ,1, 2, W, None, None, ,  
02/09/2018 17:21, -5, 77, -10 ,1, 1, W, None, None, ,  
02/09/2018 17:11, -4, 74, -10 ,2, 4, W, None, None, ,  
02/09/2018 17:09, -4, 74, -10 ,3, 4, W, None, None, ,  
02/09/2018 17:01, -3, 74, -10 ,3, 4, W, None, None, ,  
02/09/2018 16:54, -4, 75, -10 ,4, 6, W, None, None, ,  
02/09/2018 16:51, -4, 75, -10 ,4, 6, W, None, None, ,  
02/09/2018 16:41, -4, 75, -10 ,6, 7, W, None, None, ,  
02/09/2018 16:39, -4, 75, -10 ,7, 7, W, None, None, ,  
02/09/2018 16:31, -3, 74, -9 ,6, 9, W, None, None, ,  
02/09/2018 16:24, -3, 74, -9 ,6, 7, SW, None, None, ,  
02/09/2018 16:21, -3, 74, -10 ,7, 7, SW, None, None, ,  
02/09/2018 16:11, -3, 73, -10 ,6, 7, W, None, None, ,  
02/09/2018 16:09, -3, 73, -10 ,6, 7, W, None, None, ,  
02/09/2018 16:01, -3, 74, -9 ,4, 6, SW, None, None, ,  
02/09/2018 15:54, -3, 74, -9 ,4, 6, W, None, None, ,  
02/09/2018 15:51, -3, 74, -9 ,4, 6, W, None, None, ,  
02/09/2018 15:41, -3, 74, -9 ,4, 5, SW, None, None, ,  
02/09/2018 15:39, -3, 74, -9 ,4, 5, SW, None, None, ,  
02/09/2018 15:31, -3, 74, -9 ,4, 6, W, None, None, ,  
02/09/2018 15:24, -3, 74, -9 ,4, 6, SW, None, None, ,  
02/09/2018 15:20, -3, 73, -9 ,6, 6, W, None, None, ,  
02/09/2018 15:10, -2, 72, -9 ,4, 4, SW, None, None, ,  
02/09/2018 15:09, -2, 72, -9 ,3, 4, SW, None, None, ,  
02/09/2018 15:00, -2, 73, -9 ,4, 5, SW, None, None, ,  
02/09/2018 14:54, -2, 72, -9 ,4, 4, SW, None, None, ,  
02/09/2018 14:50, -2, 72, -9 ,3, 4, SW, None, None, ,  
02/09/2018 14:40, -2, 73, -9 ,3, 4, SW, None, None, ,  
02/09/2018 14:39, -3, 72, -9 ,3, 4, SW, None, None, ,  
02/09/2018 14:30, -3, 73, -9 ,3, 5, SW, None, None, ,  
02/09/2018 14:24, -3, 74, -9 ,3, 6, SW, None, None, ,  
02/09/2018 14:20, -3, 75, -9 ,3, 6, W, None, None, ,  
02/09/2018 14:10, -4, 75, -10 ,6, 7, W, None, None, ,  
02/09/2018 14:09, -4, 75, -10 ,6, 7, W, None, None, ,  
02/09/2018 14:00, -4, 75, -10 ,6, 7, W, None, None, ,  
02/09/2018 13:54, -4, 76, -9 ,5, 7, W, None, None, ,  
02/09/2018 13:50, -4, 77, -9 ,6, 7, W, None, None, ,  
02/09/2018 13:40, -4, 77, -9 ,4, 6, W, None, None, ,  
02/09/2018 13:39, -4, 77, -9 ,5, 6, W, None, None, ,  
02/09/2018 13:30, -4, 77, -9 ,6, 6, W, None, None, ,  
02/09/2018 13:24, -4, 78, -9 ,4, 6, W, None, None, ,  
02/09/2018 13:20, -4, 78, -9 ,4, 6, W, None, None, ,  
02/09/2018 13:10, -5, 78, -10 ,4, 6, W, None, None, ,  
02/09/2018 13:09, -5, 78, -10 ,4, 6, W, None, None, ,  
02/09/2018 13:00, -5, 77, -10 ,4, 6, W, None, None, ,  
02/09/2018 12:54, -4, 77, -9 ,4, 4, W, None, None, ,  
02/09/2018 12:50, -4, 78, -9 ,4, 4, W, None, None, ,  
02/09/2018 12:39, -4, 78, -9 ,3, 4, W, None, None, ,  
02/09/2018 12:39, -4, 77, -9 ,3, 4, W, None, None, ,  
02/09/2018 12:29, -4, 75, -9 ,3, 4, SW, None, None, ,  
02/09/2018 12:24, -4, 73, -10 ,2, 4, SW, None, None, ,  
02/09/2018 12:19, -3, 72, -10 ,2, 3, SW, None, None, ,  
02/09/2018 12:09, -4, 74, -10 ,1, 2, SW, None, None, ,  
02/09/2018 12:09, -4, 74, -10 ,1, 2, SW, None, None, ,  
02/09/2018 11:59, -4, 74, -10 ,2, 3, SW, None, None, ,  
02/09/2018 11:54, -4, 75, -10 ,1, 2, SW, None, None, ,  
02/09/2018 11:49, -5, 75, -10 ,1, 3, SW, None, None, ,  
02/09/2018 11:39, -5, 75, -11 ,3, 4, SW, None, None, ,  
02/09/2018 11:39, -5, 75, -11 ,3, 4, SW, None, None, ,  
02/09/2018 11:29, -3, 74, -10 ,1, 2, SW, None, None, ,  
02/09/2018 11:24, -4, 75, -10 ,1, 3, SW, None, None, ,  
02/09/2018 11:19, -4, 75, -10 ,2, 3, SW, None, None, ,  
02/09/2018 11:09, -4, 75, -10 ,2, 3, SW, None, None, ,  
02/09/2018 11:09, -4, 75, -10 ,2, 3, SW, None, None, ,  
02/09/2018 10:59, -5, 76, -10 ,1, 3, SW, None, None, ,  
02/09/2018 10:54, -5, 76, -11 ,2, 3, SW, None, None, ,  
02/09/2018 10:49, -5, 77, -11 ,1, 3, SW, None, None, ,  
02/09/2018 10:39, -5, 77, -11 ,2, 3, S, None, None, ,  
02/09/2018 10:39, -5, 77, -11 ,2, 3, S, None, None, ,  
02/09/2018 10:29, -6, 77, -11 ,2, 3, SW, None, None, ,  
02/09/2018 10:24, -6, 77, -11 ,2, 4, SW, None, None, ,  
02/09/2018 10:19, -6, 77, -11 ,3, 4, SW, None, None, ,  
02/09/2018 10:09, -5, 75, -11 ,1, 2, S, None, None, ,  
02/09/2018 10:09, -5, 75, -11 ,1, 3, S, None, None, ,  
02/09/2018 09:58, -4, 73, -10 ,2, 3, S, None, None, ,  
02/09/2018 09:54, -4, 75, -10 ,0, 3, SW, None, None, ,  
02/09/2018 09:48, -4, 77, -9 ,2, 4, NE, None, None, ,  
02/09/2018 09:39, -4, 77, -9 ,3, 6, N, None, None, ,  
02/09/2018 09:38, -4, 77, -9 ,4, 6, N, None, None, ,  
02/09/2018 09:28, -4, 77, -9 ,4, 4, N, None, None, ,  
02/09/2018 09:24, -4, 77, -9 ,4, 4, N, None, None, ,  
02/09/2018 09:18, -4, 75, -10 ,4, 4, N, None, None, ,  
02/09/2018 09:09, 0, 71, -7 ,2, 4, N, None, None, ,  
02/09/2018 09:08, 0, 72, -7 ,2, 4, N, None, None, ,  
02/09/2018 08:58, -1, 76, -7 ,4, 4, NW, None, None, ,  
02/09/2018 08:54, -3, 77, -8 ,4, 5, NW, None, None, ,  
02/09/2018 08:48, -3, 78, -8 ,4, 4, NW, None, None, ,  
02/09/2018 08:39, -2, 80, -7 ,4, 5, NW, None, None, ,  
02/09/2018 08:38, -2, 80, -7 ,4, 5, NW, None, None, ,  
02/09/2018 08:28, -3, 81, -7 ,4, 4, NW, None, None, ,  
02/09/2018 08:23, -3, 83, -7 ,4, 4, NW, None, None, ,  
02/09/2018 08:18, -4, 84, -7 ,4, 4, NW, None, None, ,  
02/09/2018 08:08, -5, 83, -8 ,2, 3, W, None, None, ,  
02/09/2018 08:08, -5, 83, -8 ,2, 3, W, None, None, ,  
02/09/2018 07:58, -4, 84, -7 ,3, 3, W, None, None, ,  
02/09/2018 07:53, -4, 84, -7 ,2, 3, SW, None, None, ,  
02/09/2018 07:48, -4, 84, -7 ,3, 3, SW, None, None, ,  
02/09/2018 07:38, -3, 85, -7 ,2, 3, SW, None, None, ,  
02/09/2018 07:38, -3, 84, -7 ,2, 3, SW, None, None, ,  
02/09/2018 07:27, -3, 83, -7 ,2, 2, SW, Yes, , ,  
02/09/2018 07:23, -3, 83, -7 ,2, 2, W, Yes, , ,  
02/09/2018 07:17, -3, 83, -6 ,1, 2, SW, Yes, , ,  
02/09/2018 07:09, -2, 83, -6 ,0, 2, W, Yes, , ,  
02/09/2018 07:07, -2, 83, -6 ,1, 2, W, Yes, , ,  
02/09/2018 06:57, -2, 83, -6 ,2, 2, SW, Yes, , ,  
02/09/2018 06:55, -2, 83, -6 ,1, 2, SW, Yes, , ,  
02/09/2018 06:47, -2, 82, -6 ,2, 2, S, Yes, , ,  
02/09/2018 06:40, -2, 82, -6 ,1, 3, SW, Yes, , ,  
02/09/2018 06:37, -2, 82, -6 ,2, 4, SW, Yes, , ,  
02/09/2018 06:27, -2, 82, -6 ,2, 4, W, Yes, , ,  
02/09/2018 06:25, -2, 82, -6 ,2, 4, W, Yes, , ,  
02/09/2018 06:17, -2, 83, -6 ,2, 2, W, Yes, , ,  
02/09/2018 06:10, -2, 82, -6 ,1, 3, W, Yes, , ,  
02/09/2018 06:07, -2, 82, -6 ,2, 3, W, None, None, ,  
02/09/2018 05:57, -2, 82, -6 ,2, 3, W, None, None, ,  
02/09/2018 05:55, -2, 81, -6 ,2, 3, NW, None, None, ,  
02/09/2018 05:47, -2, 82, -6 ,2, 2, NW, Yes, , ,  
02/09/2018 05:40, -2, 82, -6 ,1, 2, W, Yes, , ,  
02/09/2018 05:37, -2, 81, -6 ,1, 2, W, Yes, , ,  
02/09/2018 05:27, -2, 81, -6 ,1, 2, W, Yes, , ,  
02/09/2018 05:25, -2, 81, -6 ,1, 2, N, Yes, , ,  
02/09/2018 05:17, -1, 81, -6 ,2, 2, N, Yes, , ,  
02/09/2018 05:10, -1, 81, -6 ,1, 2, NW, Yes, , ,  
02/09/2018 05:07, -1, 81, -6 ,0, 3, W, Yes, , ,  
02/09/2018 04:57, -1, 80, -6 ,2, 4, NW, Yes, , ,  
02/09/2018 04:55, -1, 80, -6 ,1, 4, N, Yes, , ,  
02/09/2018 04:46, -1, 80, -5 ,3, 6, N, Yes, , ,  
02/09/2018 04:40, -1, 80, -5 ,2, 4, NW, Yes, , ,  
02/09/2018 04:36, -1, 80, -6 ,3, 4, N, Yes, , ,  
02/09/2018 04:26, -1, 80, -5 ,4, 5, NW, Yes, , ,  
02/09/2018 04:25, -1, 80, -5 ,4, 6, NW, Yes, , ,  
02/09/2018 04:16, -1, 79, -6 ,6, 6, N, Yes, , ,  
02/09/2018 04:10, -1, 79, -6 ,4, 6, NW, Yes, , ,  
02/09/2018 04:06, -1, 79, -6 ,4, 6, N, Yes, , ,  
02/09/2018 03:56, -1, 79, -6 ,4, 8, NW, Yes, , ,  
02/09/2018 03:55, -1, 79, -6 ,6, 9, N, Yes, , ,  
02/09/2018 03:46, -1, 79, -6 ,7, 9, N, Yes, , ,  
02/09/2018 03:40, -1, 79, -5 ,6, 7, N, Yes, , ,  
02/09/2018 03:36, -1, 79, -5 ,4, 7, N, Yes, , ,  
02/09/2018 03:26, -1, 79, -5 ,6, 8, N, Yes, , ,  
02/09/2018 03:25, -1, 79, -6 ,6, 8, N, Yes, , ,  
02/09/2018 03:16, -1, 78, -6 ,6, 7, N, Yes, , ,  
02/09/2018 03:10, -1, 78, -6 ,6, 7, N, Yes, , ,  
02/09/2018 03:06, -1, 78, -6 ,4, 6, N, Yes, , ,  
02/09/2018 02:56, -1, 78, -6 ,4, 7, N, Yes, , ,  
02/09/2018 02:55, -1, 78, -6 ,4, 7, N, Yes, , ,  
02/09/2018 02:46, 0, 78, -6 ,4, 4, N, Yes, , ,  
02/09/2018 02:40, 0, 78, -6 ,3, 4, N, Yes, , ,  
02/09/2018 02:36, 0, 79, -5 ,3, 6, N, Yes, , ,  
02/09/2018 02:26, 0, 79, -5 ,2, 5, N, Yes, , ,  
02/09/2018 02:25, 0, 79, -5 ,2, 5, N, Yes, , ,  
02/09/2018 02:16, -1, 80, -5 ,2, 4, SE, Yes, , ,  
02/09/2018 02:10, -1, 80, -5 ,3, 4, SW, Yes, , ,  
02/09/2018 02:06, -1, 80, -5 ,4, 6, S, Yes, , ,  
02/09/2018 01:55, -1, 80, -5 ,4, 8, NW, Yes, , ,  
02/09/2018 01:55, -1, 80, -5 ,4, 8, NW, Yes, , ,  
02/09/2018 01:45, -1, 80, -5 ,7, 11, NW, Yes, , ,  
02/09/2018 01:40, -1, 80, -5 ,7, 12, NW, Yes, , ,  
02/09/2018 01:35, -1, 80, -5 ,9, 12, N, Yes, , ,  
02/09/2018 01:25, 0, 80, -5 ,10, 13, N, Yes, , ,  
02/09/2018 01:25, 0, 80, -5 ,9, 13, N, Yes, , ,  
02/09/2018 01:15, 0, 79, -5 ,11, 14, N, None, None, ,  
02/09/2018 01:10, 0, 79, -5 ,12, 15, N, Yes, , ,  
02/09/2018 01:05, 0, 80, -5 ,11, 16, N, Yes, , ,  
02/09/2018 00:55, 0, 79, -5 ,14, 17, N, None, None, ,  
02/09/2018 00:55, 0, 79, -5 ,14, 17, N, None, None, ,  
02/09/2018 00:45, 0, 79, -5 ,13, 16, N, None, None, ,  
02/09/2018 00:40, -1, 79, -5 ,13, 15, N, None, None, ,  
02/09/2018 00:35, -1, 79, -5 ,13, 16, N, None, None, ,  
02/09/2018 00:25, 0, 79, -5 ,13, 16, N, None, None, ,  
02/09/2018 00:25, 0, 79, -5 ,13, 16, N, None, None, ,  
02/09/2018 00:15, 0, 80, -5 ,13, 16, N, Yes, , ,  
02/09/2018 00:10, -1, 79, -5 ,12, 15, N, None, None, ,  
02/09/2018 00:05, -1, 80, -5 ,12, 14, N, None, None, ,  
02/08/2018 23:55, -1, 79, -5 ,11, 14, N, None, None, ,  
02/08/2018 23:55, -1, 79, -5 ,11, 14, N, None, None, ,  
02/08/2018 23:45, -1, 79, -6 ,11, 14, N, None, None, ,  
02/08/2018 23:40, -1, 78, -6 ,12, 16, NW, None, None, ,  
02/08/2018 23:35, -1, 78, -6 ,13, 16, N, None, None, ,  
02/08/2018 23:25, 0, 78, -6 ,12, 14, NW, None, None, ,  
02/08/2018 23:25, 0, 78, -6 ,11, 14, N, None, None, ,  
02/08/2018 23:14, -1, 78, -6 ,11, 14, NW, Yes, , ,  
02/08/2018 23:10, -1, 78, -6 ,11, 14, N, Yes, , ,  
02/08/2018 23:04, -1, 78, -6 ,11, 15, N, None, None, ,  
02/08/2018 22:55, 0, 78, -6 ,12, 16, N, None, None, ,  
02/08/2018 22:54, 0, 78, -6 ,12, 16, N, None, None, ,  
02/08/2018 22:44, 0, 78, -5 ,14, 16, N, None, None, ,  
02/08/2018 22:40, 0, 78, -5 ,14, 16, N, None, None, ,  
02/08/2018 22:34, 0, 78, -5 ,12, 14, N, None, None, ,  
02/08/2018 22:25, 0, 78, -5 ,12, 16, N, None, None, ,  
02/08/2018 22:24, 0, 78, -5 ,12, 16, N, None, None, ,  
02/08/2018 22:14, 0, 79, -5 ,11, 13, N, None, None, ,  
02/08/2018 22:10, 0, 79, -5 ,10, 13, N, Yes, , ,  
02/08/2018 22:04, 1, 79, -5 ,10, 12, N, None, None, ,  
02/08/2018 21:55, 1, 79, -5 ,9, 12, N, None, None, ,  
02/08/2018 21:54, 1, 79, -4 ,9, 12, N, None, None, ,  
02/08/2018 21:44, 1, 79, -4 ,9, 12, N, None, None, ,  
02/08/2018 21:40, 1, 79, -4 ,9, 12, NW, None, None, ,  
02/08/2018 21:34, 1, 79, -4 ,9, 14, N, None, None, ,  
02/08/2018 21:25, 1, 79, -4 ,12, 15, N, None, None, ,  
02/08/2018 21:24, 1, 79, -4 ,12, 14, N, None, None, ,  
02/08/2018 21:14, 1, 79, -4 ,12, 15, N, None, None, ,  
02/08/2018 21:10, 1, 79, -4 ,13, 15, N, None, None, ,  
02/08/2018 21:04, 1, 80, -4 ,11, 14, N, Yes, , ,  
02/08/2018 20:55, 1, 79, -4 ,11, 15, N, None, None, ,  
02/08/2018 20:54, 1, 79, -4 ,12, 15, N, None, None, ,  
02/08/2018 20:44, 1, 79, -4 ,9, 14, NW, None, None, ,  
02/08/2018 20:40, 1, 79, -4 ,10, 12, NW, None, None, ,  
02/08/2018 20:33, 1, 79, -4 ,9, 12, NW, Yes, , ,  
02/08/2018 20:25, 1, 79, -4 ,10, 12, NW, None, None, ,  
02/08/2018 20:23, 1, 79, -4 ,9, 11, NW, None, None, ,  
02/08/2018 20:13, 1, 79, -4 ,4, 9, NW, None, None, ,  
02/08/2018 20:10, 2, 78, -4 ,6, 9, NW, None, None, ,  
02/08/2018 20:03, 2, 79, -3 ,4, 12, NW, None, None, ,  
02/08/2018 19:55, 2, 79, -3 ,3, 12, S, Yes, , ,  
02/08/2018 19:53, 2, 79, -3 ,3, 12, S, Yes, , ,  
02/08/2018 19:43, 2, 79, -3 ,8, 14, N, None, None, ,  
02/08/2018 19:40, 2, 79, -3 ,9, 14, NW, Yes, , ,  
02/08/2018 19:33, 2, 79, -3 ,9, 19, NW, None, None, ,  
02/08/2018 19:25, 2, 80, -3 ,14, 18, NW, None, None, ,  
02/08/2018 19:23, 2, 80, -3 ,16, 18, NW, None, None, ,  
02/08/2018 19:13, 2, 81, -2 ,11, 17, NW, Yes, , ,  
02/08/2018 19:10, 2, 81, -2 ,11, 19, NW, Yes, , ,  
02/08/2018 19:03, 2, 81, -2 ,15, 20, NW, None, None, ,  
02/08/2018 18:54, 2, 81, -2 ,16, 19, NW, None, None, ,  
02/08/2018 18:53, 2, 81, -2 ,14, 19, NW, None, None, ,  
02/08/2018 18:43, 2, 81, -2 ,13, 19, NW, None, None, ,  
02/08/2018 18:40, 2, 82, -2 ,14, 17, NW, None, None, ,  
02/08/2018 18:33, 3, 82, -1 ,13, 20, NW, None, None, ,  
Change End Date:

Copyright © 1998-2015 Vaisala, Inc.
All Rights Reserved
Send comments about the data to:
SCAN Web ® is a registered trademark of Vaisala, Inc.
SCAN Web Version 6.0